CFI439 ZSSS-ZSSS

Flight info

Callsign CFI439
Flight time N/A
Altitude 11800
Route ZSSS/18R N0450A130 PIK61D PIKAS G330 PIMOL W184 ZJ SASAN7.ZJ ZSSS/18L
Aircraft C750/M-SBDE3FGHRWXY/S

Departure

Time 2026-05-01 10:34
Airport Shanghai Hongqiao International Airport (ZSSS)

Arrival

Time N/A
Airport Shanghai Hongqiao International Airport (ZSSS)
Time Latitude Longitude Altitude Speed Heading
2026-05-01 10:05 31.20607 121.34026 19 ft 0 kts 86°
2026-05-01 10:23 31.20607 121.34021 19 ft 2 kts 86°
2026-05-01 10:23 31.20611 121.33987 19 ft 2 kts 131°
2026-05-01 10:23 31.20623 121.33980 19 ft 1 kts 175°
2026-05-01 10:24 31.20627 121.33980 19 ft 0 kts 178°
2026-05-01 10:25 31.20593 121.33982 19 ft 5 kts 176°
2026-05-01 10:26 31.20545 121.33985 19 ft 7 kts 177°
2026-05-01 10:26 31.20505 121.33960 19 ft 7 kts 265°
2026-05-01 10:26 31.20514 121.33853 19 ft 6 kts 325°
2026-05-01 10:27 31.20605 121.33841 19 ft 7 kts 357°
2026-05-01 10:27 31.20746 121.33833 19 ft 12 kts 357°
2026-05-01 10:28 31.20845 121.33828 19 ft 15 kts 358°
2026-05-01 10:28 31.21087 121.33814 19 ft 17 kts 356°
2026-05-01 10:28 31.21199 121.33774 19 ft 16 kts 311°
2026-05-01 10:29 31.21268 121.33677 19 ft 0 kts 309°
2026-05-01 10:30 31.21269 121.33675 19 ft 1 kts 309°
2026-05-01 10:31 31.21307 121.33618 19 ft 7 kts 294°
2026-05-01 10:31 31.21308 121.33503 19 ft 6 kts 266°
2026-05-01 10:32 31.21305 121.33394 19 ft 6 kts 267°
2026-05-01 10:32 31.21303 121.33340 19 ft 6 kts 266°
2026-05-01 10:32 31.21298 121.33237 19 ft 6 kts 267°
2026-05-01 10:33 31.21264 121.33166 19 ft 5 kts 177°
2026-05-01 10:33 31.20125 121.33225 33 ft 152 kts 177°
2026-05-01 10:34 31.18981 121.33273 531 ft 173 kts 176°
2026-05-01 10:34 31.17831 121.33369 1562 ft 174 kts 174°
2026-05-01 10:34 31.16654 121.33367 2551 ft 175 kts 176°
2026-05-01 10:35 31.14157 121.33481 4303 ft 192 kts 175°
2026-05-01 10:35 31.12829 121.33561 5314 ft 195 kts 176°
2026-05-01 10:35 31.11491 121.33642 6308 ft 197 kts 176°
2026-05-01 10:35 31.10128 121.33722 7233 ft 203 kts 177°
2026-05-01 10:36 31.06838 121.33917 8277 ft 262 kts 179°
2026-05-01 10:36 31.05074 121.33452 9264 ft 266 kts 213°
2026-05-01 10:36 31.03894 121.31865 10277 ft 269 kts 247°
2026-05-01 10:37 31.03637 121.29666 10839 ft 290 kts 279°
2026-05-01 10:37 31.04757 121.24979 11776 ft 319 kts 281°
2026-05-01 10:37 31.05254 121.22322 11822 ft 347 kts 281°
2026-05-01 10:38 31.05778 121.19440 11835 ft 372 kts 281°
2026-05-01 10:38 31.06441 121.16422 11816 ft 396 kts 290°
2026-05-01 10:38 31.08034 121.13717 11816 ft 414 kts 315°
2026-05-01 10:38 31.10463 121.11912 11779 ft 417 kts 337°
2026-05-01 10:39 31.13297 121.11310 11767 ft 415 kts 359°
2026-05-01 10:39 31.16131 121.11943 11820 ft 413 kts 14°
2026-05-01 10:39 31.18984 121.12284 11782 ft 408 kts 351°
2026-05-01 10:39 31.21765 121.11668 11773 ft 407 kts 353°
2026-05-01 10:40 31.24595 121.11584 11817 ft 403 kts 357°
2026-05-01 10:40 31.27362 121.11453 11797 ft 391 kts 355°
2026-05-01 10:40 31.30044 121.11303 11798 ft 380 kts 355°
2026-05-01 10:40 31.32661 121.11142 11791 ft 371 kts 355°
2026-05-01 10:41 31.35237 121.11018 11795 ft 366 kts 358°
2026-05-01 10:41 31.37769 121.11178 11784 ft 357 kts
2026-05-01 10:41 31.42652 121.11513 11783 ft 343 kts
2026-05-01 10:42 31.45028 121.11487 11752 ft 335 kts 346°
2026-05-01 10:42 31.47164 121.10516 11813 ft 325 kts 333°
2026-05-01 10:42 31.49230 121.09436 11793 ft 322 kts 334°
2026-05-01 10:42 31.51256 121.08355 11787 ft 318 kts 333°
2026-05-01 10:43 31.53271 121.07286 11787 ft 316 kts 334°
2026-05-01 10:43 31.55294 121.06212 11793 ft 322 kts 333°
2026-05-01 10:43 31.57369 121.05104 11799 ft 331 kts 333°
2026-05-01 10:43 31.59506 121.03972 11801 ft 339 kts 334°
2026-05-01 10:44 31.61686 121.02808 11796 ft 346 kts 334°
2026-05-01 10:44 31.63908 121.01629 11798 ft 353 kts 334°
2026-05-01 10:44 31.66168 121.00425 11795 ft 358 kts 334°
2026-05-01 10:44 31.68460 120.99204 11792 ft 363 kts 334°
2026-05-01 10:45 31.70785 120.97965 11793 ft 364 kts 334°
2026-05-01 10:45 31.73078 120.96740 11780 ft 359 kts 333°
2026-05-01 10:45 31.75348 120.95528 11780 ft 355 kts 334°
2026-05-01 10:45 31.77585 120.94334 11781 ft 351 kts 333°
2026-05-01 10:46 31.79798 120.93148 11778 ft 347 kts 334°
2026-05-01 10:46 31.81991 120.91979 11780 ft 344 kts 333°
2026-05-01 10:46 31.84162 120.90814 11783 ft 342 kts 334°
2026-05-01 10:46 31.86324 120.89656 11783 ft 340 kts 334°
2026-05-01 10:47 31.88474 120.88506 11782 ft 338 kts 334°
2026-05-01 10:47 31.90618 120.87357 11783 ft 336 kts 334°
2026-05-01 10:47 31.92745 120.86217 11784 ft 335 kts 334°
2026-05-01 10:47 31.94867 120.85079 11780 ft 334 kts 334°
2026-05-01 10:48 31.96982 120.83941 11783 ft 333 kts 334°
2026-05-01 10:48 31.99091 120.82808 11783 ft 332 kts 333°
2026-05-01 10:48 32.01194 120.81678 11783 ft 331 kts 333°
2026-05-01 10:48 32.03294 120.80551 11783 ft 331 kts 333°
2026-05-01 10:49 32.05388 120.79420 11779 ft 330 kts 333°
2026-05-01 10:49 32.07485 120.78288 11778 ft 330 kts 333°
2026-05-01 10:49 32.09573 120.77167 11778 ft 329 kts 333°
2026-05-01 10:49 32.11660 120.76039 11774 ft 329 kts 333°
2026-05-01 10:50 32.13742 120.74916 11778 ft 328 kts 334°
2026-05-01 10:50 32.15659 120.73493 11747 ft 324 kts 312°
2026-05-01 10:50 32.16753 120.71222 11786 ft 319 kts 284°
2026-05-01 10:50 32.17035 120.68641 11804 ft 317 kts 275°
2026-05-01 10:51 32.17279 120.66049 11781 ft 318 kts 275°
2026-05-01 10:51 32.17498 120.63454 11783 ft 318 kts 275°
2026-05-01 10:51 32.17717 120.60860 11783 ft 318 kts 275°
2026-05-01 10:51 32.17935 120.58261 11781 ft 318 kts 275°
2026-05-01 10:52 32.18154 120.55666 11780 ft 318 kts 275°
2026-05-01 10:52 32.18369 120.53068 11785 ft 318 kts 275°
2026-05-01 10:52 32.18584 120.50467 11783 ft 318 kts 275°
2026-05-01 10:52 32.18799 120.47869 11784 ft 318 kts 275°
2026-05-01 10:53 32.19013 120.45272 11785 ft 318 kts 275°
2026-05-01 10:53 32.19229 120.42670 11782 ft 318 kts 275°
2026-05-01 10:53 32.19440 120.40074 11782 ft 319 kts 275°
2026-05-01 10:53 32.19655 120.37467 11781 ft 319 kts 275°
2026-05-01 10:54 32.19867 120.34862 11782 ft 319 kts 274°
2026-05-01 10:54 32.20080 120.32261 11783 ft 319 kts 274°
2026-05-01 10:54 32.20293 120.29655 11780 ft 319 kts 274°
2026-05-01 10:54 32.20507 120.27048 11778 ft 320 kts 274°
2026-05-01 10:55 32.20721 120.24438 11774 ft 320 kts 274°
2026-05-01 10:55 32.20933 120.21821 11775 ft 320 kts 274°
2026-05-01 10:55 32.21147 120.19210 11773 ft 320 kts 274°
2026-05-01 10:55 32.21361 120.16588 11772 ft 320 kts 274°
2026-05-01 10:56 32.21574 120.13971 11770 ft 320 kts 274°
2026-05-01 10:56 32.21785 120.11351 11769 ft 320 kts 274°
2026-05-01 10:56 32.21998 120.08737 11767 ft 321 kts 274°
2026-05-01 10:56 32.22208 120.06118 11767 ft 321 kts 274°
2026-05-01 10:57 32.22420 120.03491 11766 ft 321 kts 274°
2026-05-01 10:57 32.22628 120.00874 11767 ft 321 kts 274°
2026-05-01 10:57 32.22841 119.98254 11766 ft 321 kts 274°
2026-05-01 10:57 32.23048 119.95629 11764 ft 321 kts 274°
2026-05-01 10:58 32.23259 119.92998 11768 ft 321 kts 274°
2026-05-01 10:58 32.23466 119.90368 11767 ft 322 kts 274°
2026-05-01 10:58 32.23675 119.87740 11767 ft 322 kts 274°
2026-05-01 10:58 32.23883 119.85112 11763 ft 322 kts 274°
2026-05-01 10:59 32.24091 119.82477 11764 ft 323 kts 274°
2026-05-01 10:59 32.24144 119.79751 11760 ft 337 kts 260°
2026-05-01 10:59 32.23215 119.77241 11776 ft 338 kts 232°
2026-05-01 10:59 32.21375 119.75529 11772 ft 342 kts 205°
2026-05-01 11:00 32.19038 119.74953 11790 ft 347 kts 184°
2026-05-01 11:00 32.16621 119.74724 11773 ft 350 kts 189°
2026-05-01 11:00 32.14188 119.74358 11775 ft 353 kts 188°
2026-05-01 11:00 32.11741 119.73968 11774 ft 355 kts 189°
2026-05-01 11:01 32.09272 119.73560 11773 ft 357 kts 189°
2026-05-01 11:01 32.06800 119.73141 11773 ft 359 kts 189°
2026-05-01 11:01 32.04319 119.72721 11773 ft 361 kts 189°
2026-05-01 11:01 32.01825 119.72297 11780 ft 362 kts 189°
2026-05-01 11:02 31.99326 119.71875 11780 ft 363 kts 189°
2026-05-01 11:02 31.96812 119.71520 11759 ft 365 kts 182°
2026-05-01 11:02 31.94340 119.72165 11771 ft 369 kts 155°
2026-05-01 11:02 31.92315 119.74013 11768 ft 373 kts 131°
2026-05-01 11:03 31.90908 119.76582 11796 ft 374 kts 124°
2026-05-01 11:03 31.89465 119.79136 11784 ft 375 kts 125°
2026-05-01 11:03 31.88026 119.81704 11778 ft 376 kts 125°
2026-05-01 11:03 31.86493 119.84196 11755 ft 376 kts 134°
2026-05-01 11:04 31.84351 119.85866 11778 ft 369 kts 162°
2026-05-01 11:04 31.81921 119.86293 11785 ft 362 kts 184°
2026-05-01 11:04 31.79628 119.85575 11764 ft 325 kts 206°
2026-05-01 11:04 31.77678 119.84486 11750 ft 296 kts 206°
2026-05-01 11:05 31.75873 119.83475 11750 ft 278 kts 207°
2026-05-01 11:05 31.74122 119.82474 11780 ft 281 kts 206°
2026-05-01 11:05 31.72253 119.81764 11783 ft 282 kts 191°
2026-05-01 11:05 31.70312 119.81364 11781 ft 283 kts 192°
2026-05-01 11:06 31.68372 119.80933 11784 ft 284 kts 192°
2026-05-01 11:06 31.66400 119.80499 11783 ft 289 kts 192°
2026-05-01 11:06 31.64384 119.80232 11757 ft 295 kts 175°
2026-05-01 11:07 31.61230 119.83087 11787 ft 307 kts 112°
2026-05-01 11:07 31.60955 119.85568 11806 ft 311 kts 89°
2026-05-01 11:07 31.60979 119.88113 11773 ft 314 kts 93°
2026-05-01 11:07 31.60908 119.90684 11768 ft 315 kts 94°
2026-05-01 11:08 31.60811 119.93269 11766 ft 317 kts 94°
2026-05-01 11:08 31.60701 119.95854 11766 ft 318 kts 94°
2026-05-01 11:08 31.60458 120.01035 11769 ft 319 kts 95°
2026-05-01 11:09 31.60334 120.03635 11769 ft 320 kts 94°
2026-05-01 11:09 31.60207 120.06247 11768 ft 321 kts 94°
2026-05-01 11:09 31.60082 120.08855 11768 ft 321 kts 95°
2026-05-01 11:10 31.59822 120.14183 11792 ft 336 kts 94°
2026-05-01 11:10 31.59690 120.16918 11771 ft 334 kts 94°
2026-05-01 11:10 31.59556 120.19628 11770 ft 331 kts 94°
2026-05-01 11:10 31.59424 120.22319 11770 ft 328 kts 94°
2026-05-01 11:11 31.59294 120.24948 11761 ft 317 kts 94°
2026-05-01 11:11 31.59167 120.27483 11764 ft 307 kts 94°
2026-05-01 11:11 31.59045 120.29948 11764 ft 298 kts 94°
2026-05-01 11:11 31.58826 120.32324 11751 ft 290 kts 106°
2026-05-01 11:12 31.58168 120.34578 11789 ft 295 kts 111°
2026-05-01 11:12 31.57480 120.36875 11787 ft 302 kts 110°
2026-05-01 11:12 31.56784 120.39206 11778 ft 301 kts 110°
2026-05-01 11:12 31.56099 120.41505 11770 ft 297 kts 110°
2026-05-01 11:13 31.55425 120.43775 11771 ft 293 kts 111°
2026-05-01 11:13 31.54755 120.46017 11774 ft 290 kts 111°
2026-05-01 11:13 31.54086 120.48259 11772 ft 295 kts 111°
2026-05-01 11:13 31.53403 120.50540 11781 ft 308 kts 110°
2026-05-01 11:14 31.52692 120.52918 11781 ft 315 kts 110°
2026-05-01 11:14 31.51944 120.55420 11810 ft 333 kts 110°
2026-05-01 11:14 31.51174 120.57997 11788 ft 334 kts 110°
2026-05-01 11:14 31.50411 120.60538 11774 ft 327 kts 110°
2026-05-01 11:15 31.49659 120.63049 11516 ft 329 kts 110°
2026-05-01 11:15 31.48901 120.65582 11218 ft 329 kts 111°
2026-05-01 11:15 31.48147 120.68098 10902 ft 325 kts 110°
2026-05-01 11:15 31.47402 120.70572 10595 ft 318 kts 111°
2026-05-01 11:16 31.46680 120.72982 10294 ft 311 kts 111°
2026-05-01 11:16 31.45962 120.75362 10084 ft 310 kts 111°
2026-05-01 11:16 31.45264 120.77678 9980 ft 291 kts 111°
2026-05-01 11:16 31.44608 120.79862 9711 ft 279 kts 111°
2026-05-01 11:17 31.43960 120.82012 9463 ft 281 kts 111°
2026-05-01 11:17 31.43299 120.84196 9204 ft 302 kts 111°
2026-05-01 11:17 31.42599 120.86516 8888 ft 296 kts 110°
2026-05-01 11:17 31.41936 120.88710 8667 ft 282 kts 110°
2026-05-01 11:18 31.41281 120.90881 8393 ft 281 kts 110°
2026-05-01 11:18 31.40632 120.93019 8115 ft 272 kts 110°
2026-05-01 11:18 31.40220 120.95130 7823 ft 264 kts 88°
2026-05-01 11:18 31.40675 120.97131 7826 ft 245 kts 71°
2026-05-01 11:19 31.41220 120.98984 7785 ft 235 kts 72°
2026-05-01 11:19 31.41740 121.00737 7651 ft 225 kts 71°
2026-05-01 11:19 31.42257 121.02462 7264 ft 226 kts 71°
2026-05-01 11:19 31.42773 121.04192 6892 ft 226 kts 72°
2026-05-01 11:20 31.43287 121.05919 6553 ft 223 kts 72°
2026-05-01 11:20 31.43795 121.07617 6243 ft 220 kts 72°
2026-05-01 11:20 31.44296 121.09298 5925 ft 218 kts 71°
2026-05-01 11:20 31.44785 121.10941 5735 ft 209 kts 72°
2026-05-01 11:21 31.45035 121.12584 5439 ft 205 kts 91°
2026-05-01 11:21 31.45001 121.14240 5131 ft 203 kts 91°
2026-05-01 11:21 31.45002 121.15889 4791 ft 203 kts 91°
2026-05-01 11:21 31.45002 121.17542 4491 ft 201 kts 91°
2026-05-01 11:22 31.45003 121.19167 4215 ft 199 kts 91°
2026-05-01 11:22 31.45000 121.20785 3899 ft 198 kts 91°
2026-05-01 11:22 31.45001 121.22392 3595 ft 197 kts 91°
2026-05-01 11:22 31.45001 121.23988 3284 ft 197 kts 91°
2026-05-01 11:23 31.45001 121.25582 2989 ft 195 kts 91°
2026-05-01 11:23 31.44988 121.27159 2684 ft 193 kts 98°
2026-05-01 11:23 31.44420 121.28537 2384 ft 189 kts 130°
2026-05-01 11:23 31.43538 121.29672 2097 ft 188 kts 131°
2026-05-01 11:24 31.42674 121.30768 2004 ft 178 kts 132°
2026-05-01 11:24 31.41762 121.31757 1996 ft 177 kts 151°
2026-05-01 11:24 31.39367 121.32402 2020 ft 178 kts 169°
2026-05-01 11:25 31.38120 121.32566 2014 ft 179 kts 172°
2026-05-01 11:25 31.35672 121.32763 2002 ft 172 kts 174°
2026-05-01 11:25 31.34474 121.32835 2004 ft 171 kts 174°
2026-05-01 11:26 31.33264 121.32907 2015 ft 174 kts 174°
2026-05-01 11:26 31.31026 121.33031 1957 ft 139 kts 174°
2026-05-01 11:26 31.30110 121.33070 1972 ft 122 kts 174°
2026-05-01 11:27 31.29256 121.33109 1592 ft 120 kts 173°
2026-05-01 11:27 31.28369 121.33171 1457 ft 131 kts 173°
2026-05-01 11:27 31.27428 121.33222 1275 ft 136 kts 174°
2026-05-01 11:27 31.26474 121.33272 1075 ft 137 kts 174°
2026-05-01 11:28 31.25528 121.33324 877 ft 133 kts 174°
2026-05-01 11:28 31.24611 121.33371 693 ft 129 kts 174°
2026-05-01 11:28 31.23720 121.33420 522 ft 127 kts 174°
2026-05-01 11:29 31.22211 121.33501 250 ft 133 kts 175°
2026-05-01 11:29 31.21280 121.33539 71 ft 134 kts 174°
2026-05-01 11:29 31.19270 121.33659 136 ft 133 kts 172°
2026-05-01 11:30 31.18176 121.33747 350 ft 174 kts 182°
2026-05-01 11:30 31.16974 121.33270 951 ft 184 kts 193°